sat.trackr.live / text

‹ back to catalog

STARLINK-1543

NORAD 46053 · 2020-055AC

PAYLOAD ACTIVE UNKNOWN

§ Identity

Operator
Country
US
Launch date
2020-08-07
Launch site
AFETR
Launch vehicle
Mass (kg)
RCS (m²)

Purposes: comms

External: N2YO · Heavens-Above · Gunter

§ Orbital elements

Epoch: 2026-09-13T04:28:01.719264Z

Period
94.01 min
Inclination
53.1606°
Eccentricity
0.0001256
Mean motion
15.31709487 rev/d
Perigee alt
469.9 km
Apogee alt
471.6 km
Semi-major
6,848.8 km
B*
1.3386e-4
RAAN
321.4584°
Arg perigee
82.0613°
Mean anomaly
278.0531°
Rev number
33,780

§ Raw data

STARLINK-15431 46053U 20055AC  26256.18613101  .00003792  00000+0  13386-3 0  99962 46053  53.1606 321.4584 0001256  82.0613 278.0531 15.31709487337804

JSON: /api/v1/satellites/46053 · /tle

For live sub-satellite position, see the globe view (requires WebGL).

§ Visibility from observer

Set your observer location to see the next 7 days of passes ≥ 10°. The values pass through the URL so the page stays shareable.

No JS? Fill the form by hand. The geolocation button needs JavaScript.